EW5526 Weather Reports


Display with metric or nautical units.
time (UTC)temp
F
wind
direction
speed
MPH
gust
MPH
rain 1hr
in
rain 24hr
in
rain mn
in
humidity
%
barometer
mb
20210730140244 89 143 2.0 7.0 0.00 4.50 4.50 40 1012.8
20210730135743 89 152 3.0 7.0 0.00 4.50 4.50 42 1013.0
20210730135244 89 161 3.0 11.0 0.00 4.50 4.50 43 1013.0
20210730134744 89 140 9.0 11.0 0.00 4.50 4.50 42 1013.0
20210730134244 89 157 7.0 10.0 0.00 4.50 4.50 42 1013.0
20210730133744 90 168 4.0 8.0 0.00 4.50 4.50 41 1013.1
20210730133243 90 148 3.0 12.0 0.00 4.50 4.50 40 1013.1
20210730132744 89 158 2.0 12.0 0.00 4.50 4.50 42 1013.2
20210730132244 89 136 4.0 12.0 0.00 4.50 4.50 43 1013.2
20210730131744 89 151 7.0 12.0 0.00 4.50 4.50 43 1013.2
20210730131244 90 158 6.0 11.0 0.00 4.50 4.50 43 1013.3
20210730130744 90 119 6.0 10.0 0.00 4.50 4.50 41 1013.3
20210730130243 90 167 7.0 10.0 0.00 4.50 4.50 38 1013.3
20210730125743 90 248 3.0 12.0 0.00 4.50 4.50 38 1013.4
20210730125243 90 175 5.0 12.0 0.00 4.50 4.50 39 1013.4
20210730124744 89 213 4.0 11.0 0.00 4.50 4.50 41 1013.4
20210730124243 90 174 8.0 11.0 0.00 4.50 4.50 40 1013.5
20210730123744 90 199 1.0 11.0 0.00 4.50 4.50 40 1013.5
20210730123244 90 126 6.0 11.0 0.00 4.50 4.50 39 1013.5
20210730122744 90 179 8.0 11.0 0.00 4.50 4.50 40 1013.7
20210730122244 89 168 2.0 12.0 0.00 4.50 4.50 40 1013.7
20210730121744 90 240 9.0 12.0 0.00 4.50 4.50 39 1013.7
20210730121244 89 141 6.0 12.0 0.00 4.50 4.50 39 1013.6
20210730120744 89 128 3.0 12.0 0.00 4.50 4.50 40 1013.6
20210730120244 89 174 7.0 10.0 0.00 4.50 4.50 39 1013.6
20210730115744 89 154 5.0 10.0 0.00 4.50 4.50 39 1013.8
20210730115243 90 148 2.0 12.0 0.00 4.50 4.50 39 1013.8
20210730114744 89 140 5.0 12.0 0.00 4.50 4.50 39 1013.8
20210730114244 89 162 2.0 14.0 0.00 4.50 4.50 39 1013.9
20210730113744 89 157 6.0 14.0 0.00 4.50 4.50 39 1013.9
20210730113243 88 185 5.0 13.0 0.00 4.50 4.50 40 1013.8
20210730112744 89 147 10.0 11.0 0.00 4.50 4.50 40 1014.0
20210730112244 88 191 10.0 12.0 0.00 4.50 4.50 40 1013.9
20210730111744 89 144 5.0 12.0 0.00 4.50 4.50 39 1014.0
20210730111244 89 126 7.0 11.0 0.00 4.50 4.50 40 1014.2
20210730110744 89 198 11.0 11.0 0.00 4.50 4.50 40 1014.2
20210730110244 89 144 5.0 11.0 0.00 4.50 4.50 37 1014.1
20210730105744 89 178 2.0 16.0 0.00 4.50 4.50 37 1014.2
20210730105243 88 150 6.0 16.0 0.00 4.50 4.50 38 1014.2
20210730104743 88 157 13.0 13.0 0.00 4.50 4.50 38 1014.2
20210730104243 88 188 8.0 10.0 0.00 4.50 4.50 37 1014.0
20210730103743 88 174 4.0 8.0 0.00 4.50 4.50 38 1014.1
20210730103243 89 176 6.0 7.0 0.00 4.50 4.50 37 1014.1
20210730102744 89 141 7.0 12.0 0.00 4.50 4.50 37 1014.3
20210730102244 88 192 1.0 12.0 0.00 4.50 4.50 36 1014.2
20210730101744 88 199 7.0 13.0 0.00 4.50 4.50 36 1014.2
20210730101243 88 138 4.0 17.0 0.00 4.50 4.50 37 1014.3
20210730100743 88 136 5.0 17.0 0.00 4.50 4.50 36 1014.3
20210730100244 88 189 10.0 16.0 0.00 4.50 4.50 36 1014.3
20210730095744 87 165 5.0 13.0 0.00 4.50 4.50 37 1014.4
20210730095243 87 157 5.0 13.0 0.00 4.50 4.50 37 1014.4
20210730094744 87 196 7.0 11.0 0.00 4.50 4.50 37 1014.4
20210730094243 87 127 2.0 11.0 0.00 4.50 4.50 37 1014.5
20210730093744 87 158 5.0 12.0 0.00 4.50 4.50 38 1014.5
20210730093244 88 199 11.0 12.0 0.00 4.50 4.50 38 1014.6
20210730092743 88 176 4.0 11.0 0.00 4.50 4.50 36 1014.7
20210730092244 87 169 5.0 11.0 0.00 4.50 4.50 36 1014.6
20210730091744 87 141 2.0 10.0 0.00 4.50 4.50 38 1014.6
20210730091244 87 188 1.0 10.0 0.00 4.50 4.50 38 1014.8
20210730090744 87 165 6.0 12.0 0.00 4.50 4.50 38 1014.8
20210730090243 86 199 10.0 12.0 0.00 4.50 4.50 38 1014.8
20210730085744 86 188 5.0 12.0 0.00 4.50 4.50 38 1014.7
20210730085243 86 203 4.0 12.0 0.00 4.50 4.50 38 1014.7
20210730084744 86 169 3.0 12.0 0.00 4.50 4.50 39 1014.7
20210730084244 86 175 7.0 11.0 0.00 4.50 4.50 41 1014.8
20210730083743 86 137 10.0 11.0 0.00 4.50 4.50 40 1014.8
20210730083244 85 162 2.0 8.0 0.00 4.50 4.50 40 1014.7
20210730082744 85 143 7.0 11.0 0.00 4.50 4.50 41 1014.7
20210730082243 85 169 11.0 11.0 0.00 4.50 4.50 41 1014.7
20210730081743 85 147 5.0 11.0 0.00 4.50 4.50 42 1014.8
20210730081244 85 176 7.0 11.0 0.00 4.50 4.50 42 1014.8
20210730080744 85 167 5.0 11.0 0.00 4.50 4.50 42 1014.8
20210730080243 85 154 2.0 7.0 0.00 4.50 4.50 42 1014.8
20210730075744 84 157 1.0 8.0 0.00 4.50 4.50 42 1014.7
20210730075243 84 145 5.0 8.0 0.00 4.50 4.50 42 1014.7
20210730074744 83 124 1.0 8.0 0.00 4.50 4.50 42 1014.6
20210730074244 83 162 6.0 8.0 0.00 4.50 4.50 42 1014.6
20210730073744 83 143 6.0 8.0 0.00 4.50 4.50 43 1014.7
20210730073244 83 148 5.0 8.0 0.00 4.50 4.50 43 1014.7
20210730072744 82 141 2.0 7.0 0.00 4.50 4.50 42 1014.7
20210730072243 82 145 6.0 7.0 0.00 4.50 4.50 42 1014.7
20210730071744 82 126 3.0 8.0 0.00 4.50 4.50 43 1014.7
20210730071244 82 137 5.0 8.0 0.00 4.50 4.50 43 1014.6
20210730070744 82 136 1.0 6.0 0.00 4.50 4.50 43 1014.6
20210730070244 82 147 2.0 7.0 0.00 4.50 4.50 42 1014.6
20210730065744 82 144 5.0 7.0 0.00 4.50 4.50 42 1014.6
20210730065243 81 148 3.0 10.0 0.00 4.50 4.50 43 1014.6
20210730064744 81 145 6.0 10.0 0.00 4.50 4.50 41 1014.6
20210730064244 82 145 8.0 8.0 0.00 4.50 4.50 41 1014.5
20210730063744 82 96 3.0 5.0 0.00 4.50 4.50 41 1014.5
20210730063243 82 152 3.0 5.0 0.00 4.50 4.50 41 1014.5
20210730062743 81 117 3.0 5.0 0.00 4.50 4.50 41 1014.5
20210730062244 81 137 2.0 4.0 0.00 4.50 4.50 42 1014.5
20210730061743 81 117 2.0 4.0 0.00 4.50 4.50 42 1014.5
20210730061244 80 112 3.0 7.0 0.00 4.50 4.50 42 1014.2
20210730060743 80 133 3.0 7.0 0.00 4.50 4.50 42 1014.2
20210730060244 80 141 2.0 5.0 0.00 4.50 4.50 41 1014.2
20210730055744 80 148 4.0 6.0 0.00 4.50 4.50 41 1014.2
20210730055243 79 103 2.0 6.0 0.00 4.50 4.50 42 1014.2
20210730054744 79 121 3.0 6.0 0.00 4.50 4.50 41 1014.2
20210730054243 79 107 0.0 6.0 0.00 4.50 4.50 41 1014.2
20210730053744 79 116 2.0 3.0 0.00 4.50 4.50 41 1014.2
20210730053244 79 131 0.0 3.0 0.00 4.50 4.50 41 1014.2
20210730052743 79 104 1.0 4.0 0.00 4.50 4.50 41 1014.1
20210730052244 79 141 4.0 4.0 0.00 4.50 4.50 42 1014.1
20210730051743 79 138 2.0 5.0 0.00 4.50 4.50 42 1014.1
20210730051244 78 138 1.0 5.0 0.00 4.50 4.50 42 1013.8
20210730050743 78 137 1.0 4.0 0.00 4.50 4.50 42 1013.8
20210730050244 78 140 2.0 4.0 0.00 4.50 4.50 42 1013.8
20210730045743 78 110 1.0 4.0 0.00 4.50 4.50 42 1013.9
20210730045244 78 110 1.0 4.0 0.00 4.50 4.50 42 1013.9
20210730044846 78 135 2.0 6.0 0.00 4.50 4.50 43 1013.8
20210730023743 78 112 1.0 3.0 0.00 0.00 0.00 41 1014.0
20210730023243 78 104 0.0 3.0 0.00 0.00 0.00 40 1013.9
20210730022743 78 114 1.0 4.0 0.00 0.00 0.00 40 1013.9
20210730022243 78 107 4.0 4.0 0.00 0.00 0.00 40 1013.9
20210730021743 78 99 3.0 4.0 0.00 0.00 0.00 40 1013.9
20210730021244 78 133 0.0 3.0 0.00 0.00 0.00 40 1014.1
20210730020743 78 137 1.0 2.0 0.00 0.00 0.00 39 1014.1
20210730020244 78 126 2.0 2.0 0.00 0.00 0.00 39 1014.1
20210730015744 78 126 1.0 3.0 0.00 0.00 0.00 39 1014.2
20210730015243 78 121 2.0 3.0 0.00 0.00 0.00 39 1014.2
20210730014744 78 106 3.0 3.0 0.00 0.00 0.00 39 1014.2
20210730014244 78 131 1.0 4.0 0.00 0.00 0.00 39 1014.3
20210730013743 78 93 2.0 4.0 0.00 0.00 0.00 39 1014.3
20210730013243 78 123 0.0 3.0 0.00 0.00 0.00 40 1014.3
20210730012743 79 117 2.0 3.0 0.00 0.00 0.00 40 1014.4
20210730012243 79 123 1.0 3.0 0.00 0.00 0.00 39 1014.4
20210730011743 79 124 1.0 3.0 0.00 0.00 0.00 39 1014.4
20210730011244 79 124 0.0 3.0 0.00 0.00 0.00 40 1014.5
20210730010743 79 124 0.0 3.0 0.00 0.00 0.00 40 1014.5
20210730010243 79 117 2.0 3.0 0.00 0.00 0.00 40 1014.5
20210730005744 79 126 0.0 2.0 0.00 0.00 0.00 40 1014.6
20210730005243 79 136 0.0 5.0 0.00 0.00 0.00 40 1014.6
20210730004743 79 136 1.0 5.0 0.00 0.00 0.00 39 1014.6
20210730004243 79 136 1.0 5.0 0.00 0.00 0.00 39 1014.9
20210730003743 79 138 3.0 5.0 0.00 0.00 0.00 39 1014.9
20210730003244 79 148 3.0 4.0 0.00 0.00 0.00 39 1014.9
20210730002743 79 150 2.0 5.0 0.00 0.00 0.00 39 1014.9
20210730002244 79 137 1.0 5.0 0.00 0.00 0.00 38 1014.9
20210730001743 79 130 2.0 3.0 0.00 0.00 0.00 38 1014.9
20210730001243 79 126 2.0 4.0 0.00 0.00 0.00 37 1015.1
20210730000743 79 144 2.0 5.0 0.00 0.00 0.00 37 1015.1
20210730000244 79 138 1.0 5.0 0.00 0.00 0.00 37 1015.1
20210729235743 79 130 2.0 4.0 0.00 0.00 0.00 37 1014.8
20210729235244 80 134 1.0 3.0 0.00 0.00 0.00 37 1014.9
20210729234744 80 137 1.0 3.0 0.00 0.00 0.00 36 1014.9
20210729234243 80 137 1.0 5.0 0.00 0.00 0.00 36 1015.0
20210729233743 80 136 2.0 5.0 0.00 0.00 0.00 36 1015.0
20210729233243 80 145 1.0 6.0 0.00 0.00 0.00 36 1015.0
20210729232743 80 136 2.0 6.0 0.00 0.00 0.00 35 1014.9
20210729232243 80 145 2.0 7.0 0.00 0.00 0.00 36 1014.9
20210729231743 80 138 1.0 7.0 0.00 0.00 0.00 35 1014.9
20210729231243 79 151 2.0 6.0 0.00 0.00 0.00 35 1014.9
20210729230743 79 128 2.0 6.0 0.00 0.00 0.00 36 1014.9
20210729230243 79 107 4.0 7.0 0.00 0.00 0.00 36 1014.9
20210729225743 79 143 2.0 7.0 0.00 0.00 0.00 36 1014.9
20210729225243 79 136 3.0 7.0 0.00 0.00 0.00 37 1014.9
20210729224743 79 133 2.0 7.0 0.00 0.00 0.00 37 1014.9
20210729224243 79 133 3.0 5.0 0.00 0.00 0.00 37 1014.9
20210729223743 79 138 2.0 6.0 0.00 0.00 0.00 36 1014.9
20210729223243 79 164 2.0 6.0 0.00 0.00 0.00 36 1014.9
20210729222743 80 121 1.0 4.0 0.00 0.00 0.00 35 1014.9
20210729222243 80 120 1.0 4.0 0.00 0.00 0.00 35 1014.9
20210729221743 80 123 1.0 5.0 0.00 0.00 0.00 34 1014.9
20210729221243 80 121 2.0 6.0 0.00 0.00 0.00 33 1015.0
20210729220743 80 126 3.0 6.0 0.00 0.00 0.00 32 1015.0
20210729220243 81 124 1.0 4.0 0.00 0.00 0.00 33 1015.0
20210729215743 81 114 2.0 3.0 0.00 0.00 0.00 33 1014.9
20210729215243 81 117 1.0 3.0 0.00 0.00 0.00 32 1014.9
20210729214743 81 121 3.0 6.0 0.00 0.00 0.00 32 1014.9
20210729214243 81 113 1.0 6.0 0.00 0.00 0.00 31 1014.8
20210729213743 82 110 2.0 5.0 0.00 0.00 0.00 31 1014.9
20210729213243 82 123 1.0 5.0 0.00 0.00 0.00 31 1014.9
20210729212743 82 130 0.0 5.0 0.00 0.00 0.00 31 1015.0
20210729212243 82 104 1.0 5.0 0.00 0.00 0.00 31 1015.0
20210729211743 82 113 2.0 6.0 0.00 0.00 0.00 31 1015.0
20210729211243 82 114 3.0 6.0 0.00 0.00 0.00 31 1015.0
20210729210743 82 85 1.0 3.0 0.00 0.00 0.00 31 1015.0
20210729210243 82 93 2.0 3.0 0.00 0.00 0.00 31 1015.0
20210729205743 82 117 2.0 2.0 0.00 0.00 0.00 31 1015.0
20210729205243 82 121 1.0 3.0 0.00 0.00 0.00 31 1015.0
20210729204743 82 116 1.0 3.0 0.00 0.00 0.00 31 1015.0
20210729204243 82 116 0.0 3.0 0.00 0.00 0.00 31 1014.9
20210729203743 82 116 0.0 4.0 0.00 0.00 0.00 30 1014.9
20210729203243 82 82 1.0 4.0 0.00 0.00 0.00 31 1014.9
20210729202743 82 133 2.0 3.0 0.00 0.00 0.00 31 1015.0
20210729202243 82 100 2.0 2.0 0.00 0.00 0.00 31 1015.0
20210729201743 82 112 0.0 4.0 0.00 0.00 0.00 31 1015.0
20210729201243 82 86 4.0 4.0 0.00 0.00 0.00 31 1015.1
20210729200743 82 116 2.0 2.0 0.00 0.00 0.00 30 1015.1
20210729200243 82 119 0.0 2.0 0.00 0.00 0.00 30 1015.1
20210729195743 82 117 0.0 2.0 0.00 0.00 0.00 31 1015.0
20210729195243 82 120 1.0 4.0 0.00 0.00 0.00 31 1015.0
20210729194743 82 117 2.0 4.0 0.00 0.00 0.00 31 1015.0
20210729194243 82 123 0.0 2.0 0.00 0.00 0.00 31 1015.0
20210729193744 82 120 2.0 2.0 0.00 0.00 0.00 31 1015.0
20210729193243 83 110 1.0 2.0 0.00 0.00 0.00 31 1015.0
20210729192743 83 112 1.0 2.0 0.00 0.00 0.00 31 1015.0
20210729192243 83 123 0.0 2.0 0.00 0.00 0.00 30 1015.0
20210729191743 83 123 1.0 2.0 0.00 0.00 0.00 30 1015.0
20210729191243 83 123 1.0 2.0 0.00 0.00 0.00 30 1014.9
20210729190743 83 123 1.0 2.0 0.00 0.00 0.00 30 1014.9
20210729190243 83 123 1.0 3.0 0.00 0.00 0.00 30 1014.9
20210729185743 83 123 2.0 3.0 0.00 0.00 0.00 30 1014.8
20210729185243 83 123 1.0 2.0 0.00 0.00 0.00 29 1014.8
20210729184743 83 123 0.0 3.0 0.00 0.00 0.00 30 1014.8
20210729184243 84 136 1.0 3.0 0.00 0.00 0.00 30 1014.8
20210729183743 84 136 1.0 3.0 0.00 0.00 0.00 30 1014.8
20210729183243 84 136 2.0 5.0 0.00 0.00 0.00 30 1014.8
20210729182743 84 144 3.0 5.0 0.00 0.00 0.00 30 1014.7
20210729182243 85 136 2.0 3.0 0.00 0.00 0.00 30 1014.8
20210729181743 85 137 1.0 4.0 0.00 0.00 0.00 30 1014.8
20210729181243 85 140 4.0 5.0 0.00 0.00 0.00 30 1014.8
20210729180743 85 137 1.0 5.0 0.00 0.00 0.00 30 1014.8
20210729180243 85 130 2.0 6.0 0.00 0.00 0.00 30 1014.8
20210729175743 86 130 1.0 6.0 0.00 0.00 0.00 30 1014.8
20210729175243 86 136 5.0 6.0 0.00 0.00 0.00 29 1014.7
20210729174743 86 131 3.0 6.0 0.00 0.00 0.00 29 1014.7
20210729174243 86 134 2.0 6.0 0.00 0.00 0.00 29 1014.7
20210729173743 86 143 2.0 5.0 0.00 0.00 0.00 29 1014.7
20210729173243 87 133 2.0 4.0 0.00 0.00 0.00 29 1014.8
20210729172743 87 155 4.0 4.0 0.00 0.00 0.00 29 1014.6
20210729172243 87 158 2.0 6.0 0.00 0.00 0.00 29 1014.6
20210729171743 87 145 2.0 6.0 0.00 0.00 0.00 29 1014.6
20210729171243 88 155 2.0 4.0 0.00 0.00 0.00 29 1014.9
20210729170743 88 160 1.0 6.0 0.00 0.00 0.00 29 1014.9
20210729170243 88 145 3.0 7.0 0.00 0.00 0.00 29 1014.9
20210729165743 88 138 4.0 7.0 0.00 0.00 0.00 29 1014.6
20210729165243 89 126 6.0 7.0 0.00 0.00 0.00 29 1014.7
20210729164743 89 138 6.0 7.0 0.00 0.00 0.00 29 1014.7
20210729164243 89 136 5.0 6.0 0.00 0.00 0.00 29 1014.6
20210729163743 90 140 3.0 8.0 0.00 0.00 0.00 29 1014.6
20210729163243 90 157 4.0 8.0 0.00 0.00 0.00 29 1014.6
20210729162743 90 150 2.0 6.0 0.00 0.00 0.00 29 1014.6
20210729162243 91 127 2.0 7.0 0.00 0.00 0.00 29 1014.7
20210729161743 91 145 4.0 7.0 0.00 0.00 0.00 29 1014.7
20210729161243 92 145 5.0 7.0 0.00 0.00 0.00 28 1014.7
20210729160743 92 140 3.0 7.0 0.00 0.00 0.00 28 1014.7
20210729160243 92 152 2.0 7.0 0.00 0.00 0.00 28 1014.7
20210729155743 93 131 3.0 8.0 0.00 0.00 0.00 27 1014.8
20210729155243 93 176 6.0 8.0 0.00 0.00 0.00 27 1014.8
20210729154743 93 128 6.0 8.0 0.00 0.00 0.00 27 1014.8
20210729154243 93 182 4.0 7.0 0.00 0.00 0.00 27 1014.9
20210729153743 93 246 3.0 7.0 0.00 0.00 0.00 26 1014.9
20210729153243 93 193 2.0 10.0 0.00 0.00 0.00 27 1014.9
20210729152743 93 165 6.0 10.0 0.00 0.00 0.00 26 1015.0
20210729152243 93 150 3.0 8.0 0.00 0.00 0.00 26 1015.0
20210729151743 93 154 2.0 12.0 0.00 0.00 0.00 26 1015.0
20210729151243 93 155 5.0 12.0 0.00 0.00 0.00 26 1015.0
20210729150743 93 185 2.0 9.0 0.00 0.00 0.00 26 1015.0
20210729150243 94 172 6.0 11.0 0.00 0.00 0.00 26 1015.1
20210729145743 94 154 4.0 11.0 0.00 0.00 0.00 26 1015.2
20210729145243 94 188 7.0 8.0 0.00 0.00 0.00 25 1015.1
20210729144743 94 195 2.0 8.0 0.00 0.00 0.00 25 1015.1
20210729144243 94 161 7.0 11.0 0.00 0.00 0.00 25 1015.1
20210729143743 95 184 2.0 11.0 0.00 0.00 0.00 25 1015.2
20210729143243 95 178 6.0 9.0 0.00 0.00 0.00 24 1015.2
20210729142743 95 209 6.0 7.0 0.00 0.00 0.00 24 1015.2
20210729142243 95 175 6.0 7.0 0.00 0.00 0.00 24 1015.2
20210729141743 95 165 4.0 7.0 0.00 0.00 0.00 24 1015.2
20210729141243 95 148 6.0 11.0 0.00 0.00 0.00 24 1015.3
20210729140743 95 210 7.0 11.0 0.00 0.00 0.00 24 1015.3